Time,HR,BR,SkinTemp,Posture,Activity,PeakAccel,BatteryVolts,BatteryLevel,BRAmplitude,BRNoise,BRConfidence,ECGAmplitude,ECGNoise,HRConfidence,HRV,SystemConfidence,GSR,ROGState,ROGTime,VerticalMin,VerticalPeak,LateralMin,LateralPeak,SagittalMin,SagittalPeak,DeviceTemp,StatusInfo,LinkQuality,RSSI,TxPower,CoreTemp,AuxADC1,AuxADC2,AuxADC3
25/06/2015 11:39:24.428,65,8.1,-3276.8,-6,0.25,0.48,4.168,94,5600.000,65535.000,255,0.000000,0.000000,0,65535,0,65535,1,2,-1.33,-0.57,-0.10,0.32,-0.37,0.18,28.5,528,255,-128,-128,6553.5,417,466,499
25/06/2015 11:39:25.428,65,8.1,-3276.8,-7,0.25,0.45,4.168,94,5058.000,65535.000,255,0.000000,0.000460,0,65535,0,65535,1,3,-1.31,-0.61,-0.01,0.33,-0.33,0.19,28.5,528,255,-128,-128,6553.5,417,466,498
25/06/2015 11:39:26.428,65,7.3,-3276.8,-6,0.27,0.55,4.168,94,4473.000,65535.000,255,0.007560,0.000580,0,65535,0,65535,1,4,-1.30,-0.39,-0.27,0.36,-0.34,0.26,28.5,528,255,-128,-128,6553.5,418,468,499
25/06/2015 11:39:27.428,57,7.3,-3276.8,-5,0.28,0.54,4.168,94,3848.000,65535.000,255,0.007560,0.000440,0,65535,0,65535,1,5,-1.30,-0.39,-0.12,0.28,-0.26,0.22,28.5,528,255,-128,-128,6553.5,418,464,499
25/06/2015 11:39:28.428,66,7.6,-3276.8,-4,0.29,0.55,4.168,94,3358.000,65535.000,255,0.006980,0.000320,0,65535,0,65535,1,6,-1.37,-0.38,-0.21,0.30,-0.26,0.28,28.5,528,255,-128,-128,6553.5,418,465,498
25/06/2015 11:39:29.428,80,7.6,-3276.8,-3,0.25,0.59,4.168,94,2899.000,65535.000,255,0.006980,0.000280,0,65535,0,65535,1,7,-1.40,-0.63,-0.26,0.31,-0.28,0.22,28.5,528,255,-128,-128,6553.5,418,466,499
25/06/2015 11:39:30.428,87,7.8,-3276.8,2,0.20,0.31,4.168,94,2553.000,65535.000,255,0.005280,0.000220,13,65535,0,65535,1,8,-0.96,-0.77,-0.19,0.00,-0.21,0.13,28.5,528,255,-128,-128,6553.5,417,464,499
25/06/2015 11:39:31.428,91,7.8,-3276.8,4,0.25,0.51,4.168,94,2212.000,65535.000,255,0.005280,0.000180,23,65535,100,65535,1,9,-1.28,-0.54,-0.31,0.19,-0.49,0.19,28.5,512,255,-128,-128,6553.5,417,463,498
25/06/2015 11:39:32.428,94,8.1,-3276.8,3,0.41,1.18,4.168,94,1926.000,65535.000,255,0.005280,0.000260,33,65535,100,65535,1,10,-2.24,-0.15,-0.28,0.34,-0.34,0.34,28.5,512,255,-128,-128,6553.5,418,464,498
25/06/2015 11:39:33.428,93,8.1,-3276.8,2,0.60,1.34,4.168,94,1680.000,65535.000,255,0.005280,0.000400,41,65535,100,65535,1,11,-2.39,-0.04,-0.31,0.30,-0.49,0.36,28.5,512,255,-128,-128,6553.5,422,461,493
25/06/2015 11:39:34.428,91,8.3,-3276.8,2,0.68,1.40,4.168,94,1473.000,65535.000,255,0.005280,0.000400,49,65535,100,65535,1,12,-2.48,0.03,-0.43,0.38,-0.42,0.39,28.5,512,255,-128,-128,6553.5,427,467,501
25/06/2015 11:39:35.428,91,8.3,-3276.8,1,0.70,1.51,4.168,94,1276.000,65535.000,255,0.005280,0.000440,55,65535,100,65535,1,13,-2.57,0.13,-0.31,0.27,-0.50,0.32,28.5,512,255,-128,-128,6553.5,416,461,499
25/06/2015 11:39:36.428,92,8.5,-3276.8,1,0.72,1.68,4.168,94,1114.000,65535.000,255,0.005280,0.000440,61,65535,100,65535,1,14,-2.79,0.26,-0.28,0.28,-0.74,0.37,28.5,512,255,-128,-128,6553.5,420,463,500
25/06/2015 11:39:37.428,92,8.5,-3276.8,4,0.80,1.79,4.168,94,964.000,65535.000,255,0.005280,0.000400,66,65535,100,65535,1,15,-2.85,0.19,-0.28,0.31,-0.77,0.37,28.5,512,255,-128,-128,6553.5,418,461,498
25/06/2015 11:39:38.428,92,8.7,-3276.8,3,0.78,1.81,4.168,94,841.000,65535.000,255,0.006660,0.000460,70,65535,100,65535,1,16,-2.80,0.21,-0.30,0.30,-0.69,0.34,28.5,512,255,-128,-128,6553.5,416,460,498
25/06/2015 11:39:39.428,93,8.7,-3276.8,3,0.80,2.08,4.168,94,725.000,65535.000,255,0.006660,0.000460,74,65535,100,65535,1,17,-3.18,0.20,-0.48,0.33,-0.89,0.31,28.5,512,255,-128,-128,6553.5,418,460,498
25/06/2015 11:39:40.428,93,8.8,-3276.8,2,0.79,1.95,4.168,94,635.000,65535.000,255,0.006500,0.000460,77,65535,100,65535,1,18,-3.07,0.20,-0.31,0.27,-0.56,0.39,28.5,512,255,-128,-128,6553.5,419,462,499
25/06/2015 11:39:41.428,94,8.8,-3276.8,1,0.83,1.97,4.168,94,549.000,65535.000,255,0.006500,0.000440,80,65535,100,65535,1,19,-3.03,0.21,-0.45,0.28,-0.85,0.42,28.5,512,255,-128,-128,6553.5,417,460,498
25/06/2015 11:39:42.428,95,9.0,-3276.8,3,0.77,2.08,4.168,94,483.000,65535.000,255,0.006560,0.000500,82,65535,100,65535,1,20,-3.14,0.25,-0.36,0.28,-0.67,0.38,28.5,512,255,-128,-128,6553.5,419,458,493
25/06/2015 11:39:43.428,95,9.0,-3276.8,3,0.81,2.03,4.168,94,418.000,65535.000,255,0.006560,0.000480,85,65535,100,65535,1,21,-3.18,0.21,-0.34,0.28,-0.87,0.46,28.5,512,255,-128,-128,6553.5,422,464,501
25/06/2015 11:39:44.428,96,9.3,-3276.8,2,0.86,2.08,4.168,94,367.000,65535.000,255,0.005980,0.000460,87,65535,100,65535,1,22,-3.14,0.30,-0.37,0.24,-0.86,0.38,28.5,512,255,-128,-128,6553.5,418,458,497
25/06/2015 11:39:45.428,98,9.3,-3276.8,3,0.84,2.06,4.168,94,322.000,65535.000,255,0.005980,0.000460,88,65535,100,65535,1,23,-3.13,0.26,-0.39,0.28,-0.89,0.44,28.5,512,255,-128,-128,6553.5,418,458,498
25/06/2015 11:39:46.428,99,10.0,-3276.8,3,0.84,2.13,4.168,94,283.000,65535.000,255,0.005980,0.000440,90,65535,100,65535,1,24,-3.21,0.21,-0.33,0.31,-0.77,0.43,28.5,512,255,-128,-128,6553.5,417,459,484
25/06/2015 11:39:47.428,101,10.0,-3276.8,1,0.85,1.87,4.168,94,258.000,65535.000,255,0.005980,0.000460,91,65535,100,65535,1,25,-3.06,0.16,-0.25,0.33,-0.65,0.38,28.5,512,255,-128,-128,6553.5,421,462,511
25/06/2015 11:39:48.428,103,10.8,-3276.8,3,0.79,1.93,4.168,94,245.000,65535.000,255,0.005980,0.000480,92,65535,100,65535,1,26,-3.07,0.27,-0.32,0.32,-0.61,0.40,28.5,512,255,-128,-128,6553.5,408,449,497
25/06/2015 11:39:49.428,105,10.8,-3276.8,3,0.82,2.09,4.168,94,220.000,65535.000,255,0.005980,0.000440,93,65535,100,65535,1,27,-3.13,0.24,-0.33,0.27,-0.74,0.51,28.5,512,255,-128,-128,6553.5,416,457,499
25/06/2015 11:39:50.428,106,11.6,-3276.8,2,0.83,2.10,4.168,94,199.000,65535.000,255,0.005980,0.000420,94,65535,100,65535,1,28,-3.10,0.22,-0.34,0.25,-0.96,0.37,28.5,512,255,-128,-128,6553.5,417,456,499
25/06/2015 11:39:51.428,107,11.6,-3276.8,4,0.91,1.87,4.168,94,179.000,65535.000,255,0.005980,0.000420,95,65535,100,65535,1,29,-2.90,0.27,-0.40,0.28,-0.61,0.37,28.5,512,255,-128,-128,6553.5,412,453,496
25/06/2015 11:39:52.428,108,12.4,-3276.8,3,0.82,1.97,4.168,94,162.000,65535.000,255,0.006840,0.000400,96,65535,100,65535,1,30,-3.02,0.24,-0.32,0.27,-0.72,0.43,28.5,512,255,-128,-128,6553.5,418,457,498
25/06/2015 11:39:53.428,108,12.4,-3276.8,2,0.84,2.19,4.168,94,144.000,65535.000,255,0.006840,0.000400,96,65535,100,65535,1,31,-3.18,0.22,-0.46,0.27,-0.74,0.45,28.5,512,255,-128,-128,6553.5,423,461,499
25/06/2015 11:39:54.428,108,13.3,-3276.8,3,0.75,1.91,4.168,94,135.000,65535.000,255,0.006420,0.000320,97,65535,100,65535,1,32,-2.93,0.01,-0.85,0.37,-0.67,0.32,28.5,512,255,-128,-128,6553.5,414,452,497
25/06/2015 11:39:55.428,108,13.3,-3276.8,2,0.44,1.91,4.168,94,126.000,65535.000,255,0.006420,0.000280,97,65535,100,65535,1,33,-2.93,0.01,-0.85,0.37,-0.67,0.32,28.5,512,255,-128,-128,6553.5,415,454,497
25/06/2015 11:39:56.428,108,14.3,-3276.8,2,0.28,0.83,4.168,94,122.000,65535.000,255,0.006460,0.000220,97,65535,100,65535,1,34,-1.78,-0.33,-0.10,0.27,-0.36,0.22,28.5,512,255,-128,-128,6553.5,417,454,498
25/06/2015 11:39:57.428,108,14.3,-3276.8,-4,0.25,0.46,4.168,94,111.000,65535.000,255,0.006460,0.000200,98,65535,100,65535,1,35,-1.44,-0.48,-0.07,0.34,-0.37,0.19,28.5,512,255,-128,-128,6553.5,420,458,499
25/06/2015 11:39:58.428,108,15.3,-3276.8,-6,0.22,0.44,4.168,94,113.000,65535.000,255,0.006320,0.000160,98,65535,100,65535,1,36,-1.39,-0.56,-0.10,0.37,-0.21,0.24,28.5,512,255,-128,-128,6553.5,417,453,497
25/06/2015 11:39:59.428,108,15.3,-3276.8,-7,0.20,0.46,4.168,94,105.000,65535.000,255,0.006320,0.000180,98,65535,100,65535,1,37,-1.44,-0.73,-0.09,0.34,-0.21,0.24,28.5,512,255,-128,-128,6553.5,408,441,485
25/06/2015 11:40:00.428,108,16.3,-3276.8,-7,0.19,0.37,4.168,94,107.000,65535.000,255,0.006260,0.000160,99,65535,100,65535,1,38,-1.31,-0.66,-0.13,0.30,-0.19,0.21,28.5,512,255,-128,-128,6553.5,416,454,498
25/06/2015 11:40:01.428,107,16.3,-3276.8,-8,0.20,0.37,4.168,94,111.000,65535.000,255,0.006260,0.000140,99,65535,100,65535,1,39,-1.32,-0.73,-0.04,0.33,-0.13,0.33,28.5,512,255,-128,-128,6553.5,416,453,498
25/06/2015 11:40:02.428,106,17.2,-3276.8,-7,0.20,0.42,4.168,94,99.000,65535.000,255,0.006300,0.000100,99,65535,100,65535,1,40,-1.38,-0.73,-0.06,0.28,-0.20,0.19,28.5,512,255,-128,-128,6553.5,417,454,498
25/06/2015 11:40:03.428,104,17.2,-3276.8,-6,0.19,0.33,4.168,94,98.000,65535.000,255,0.006300,0.000100,99,65535,100,65535,1,41,-1.28,-0.73,-0.02,0.36,-0.27,0.19,28.5,512,255,-128,-128,6553.5,416,453,497
25/06/2015 11:40:04.428,103,18.0,-3276.8,-6,0.16,0.32,4.168,94,89.000,65535.000,255,0.006400,0.000100,99,65535,100,65535,1,42,-1.28,-0.73,0.00,0.28,-0.18,0.19,28.5,512,255,-128,-128,6553.5,416,454,497
25/06/2015 11:40:05.428,103,18.0,-3276.8,-6,0.20,0.33,4.168,94,83.000,65535.000,255,0.006400,0.000100,99,65535,100,65535,1,43,-1.26,-0.65,-0.04,0.27,-0.21,0.19,28.5,512,255,-128,-128,6553.5,419,448,507
25/06/2015 11:40:06.428,102,18.7,-3276.8,-6,0.18,0.33,4.168,94,87.000,65535.000,255,0.006280,0.000080,99,65535,100,65535,1,44,-1.30,-0.63,-0.06,0.33,-0.13,0.19,28.5,512,255,-128,-128,6553.5,424,459,506
25/06/2015 11:40:07.428,101,18.7,-3276.8,-5,0.17,0.34,4.168,94,93.000,65535.000,255,0.006280,0.000100,99,65535,100,65535,1,45,-1.25,-0.65,-0.04,0.25,-0.18,0.16,28.5,512,255,-128,-128,6553.5,418,453,499
25/06/2015 11:40:08.428,101,19.2,-3276.8,-5,0.18,0.32,4.168,94,85.000,65535.000,255,0.006440,0.000080,100,65535,100,65535,1,46,-1.30,-0.71,0.00,0.25,-0.18,0.18,28.5,512,255,-128,-128,6553.5,417,453,498
25/06/2015 11:40:09.428,101,19.2,-3276.8,-7,0.14,0.39,4.168,94,90.000,65535.000,255,0.006440,0.000080,100,65535,100,65535,1,47,-1.26,-0.55,-0.04,0.22,-0.16,0.19,28.5,512,255,-128,-128,6553.5,417,453,498
25/06/2015 11:40:10.428,101,17.3,-3276.8,-6,0.16,0.28,4.168,94,95.000,65535.000,255,0.006600,0.000120,100,65535,100,65535,1,48,-1.24,-0.69,-0.07,0.24,-0.13,0.09,28.5,512,255,-128,-128,6553.5,417,452,498
25/06/2015 11:40:11.428,101,17.3,-3276.8,-6,0.10,0.21,4.168,94,111.000,65535.000,255,0.006600,0.000120,100,65535,100,65535,1,49,-1.12,-0.80,0.02,0.20,-0.02,0.20,28.5,512,255,-128,-128,6553.5,417,452,498
25/06/2015 11:40:12.428,100,15.9,-3276.8,-3,0.11,0.24,4.168,94,117.000,65535.000,255,0.006280,0.000100,100,65535,100,65535,1,50,-1.12,-0.74,-0.02,0.20,-0.10,0.14,28.5,512,255,-128,-128,6553.5,419,453,498
25/06/2015 11:40:13.428,100,15.9,-3276.8,-3,0.11,0.25,4.167,94,116.000,65535.000,255,0.006280,0.000120,100,65535,100,65535,1,51,-1.12,-0.75,-0.02,0.21,-0.18,0.16,28.5,512,255,-128,-128,6553.5,417,451,498
25/06/2015 11:40:14.428,100,14.6,-3276.8,-4,0.12,0.21,4.167,94,117.000,65535.000,255,0.005160,0.000100,100,65535,100,65535,1,52,-1.12,-0.74,-0.08,0.21,-0.01,0.18,28.5,512,255,-128,-128,6553.5,418,455,506
25/06/2015 11:40:15.428,100,14.6,-3276.8,-4,0.12,0.21,4.166,94,123.000,65535.000,255,0.005160,0.000100,100,65535,100,65535,1,53,-1.12,-0.75,-0.03,0.24,-0.02,0.19,28.5,512,255,-128,-128,6553.5,417,452,497
25/06/2015 11:40:16.428,100,13.4,-3276.8,-3,0.08,0.18,4.166,94,129.000,65535.000,255,0.005180,0.000100,100,65535,100,65535,1,54,-1.08,-0.80,-0.06,0.19,-0.10,0.16,28.5,512,255,-128,-128,6553.5,417,452,498
25/06/2015 11:40:17.428,101,13.4,-3276.8,-6,0.11,0.15,4.166,94,123.000,65535.000,255,0.005180,0.000100,100,65535,100,65535,1,55,-1.08,-0.83,0.00,0.22,-0.06,0.19,28.5,512,255,-128,-128,6553.5,417,451,498
25/06/2015 11:40:18.428,102,12.4,-3276.8,-4,0.12,0.18,4.166,94,116.000,65535.000,255,0.005100,0.000100,100,65535,100,65535,1,56,-1.06,-0.81,0.00,0.24,-0.18,0.04,28.5,512,255,-128,-128,6553.5,417,452,498
25/06/2015 11:40:19.428,102,12.4,-3276.8,-6,0.10,0.18,4.166,94,102.000,65535.000,255,0.005100,0.000100,100,65535,100,65535,1,57,-1.09,-0.90,-0.02,0.20,-0.12,0.16,28.5,512,255,-128,-128,6553.5,418,452,497
25/06/2015 11:40:20.428,101,11.8,-3276.8,-3,0.11,0.19,4.166,94,99.000,65535.000,255,0.006080,0.000100,100,65535,100,65535,1,58,-1.09,-0.86,-0.07,0.22,-0.10,0.08,28.5,512,255,-128,-128,37.1,417,450,497
25/06/2015 11:40:21.428,99,11.8,-3276.8,3,0.14,0.20,4.166,94,93.000,65535.000,255,0.006080,0.000100,100,65535,100,65535,1,59,-1.14,-0.75,-0.01,0.13,-0.18,0.19,28.5,512,255,-128,-128,37.1,417,451,497
25/06/2015 11:40:22.428,98,11.5,-3276.8,-3,0.11,0.22,4.166,94,85.000,65535.000,255,0.005920,0.000080,100,65535,100,65535,1,60,-1.13,-0.86,0.03,0.19,-0.19,0.14,28.5,512,255,-128,-128,37.1,416,450,497
25/06/2015 11:40:23.428,98,11.5,-3276.8,-6,0.07,0.30,4.166,94,83.000,65535.000,255,0.005920,0.000080,100,65535,100,65535,1,61,-1.22,-0.73,0.00,0.13,0.02,0.18,28.5,512,255,-128,-128,37.1,417,451,498
25/06/2015 11:40:24.428,98,11.3,-3276.8,-8,0.06,0.12,4.166,94,80.000,65535.000,255,0.005860,0.000080,100,65535,100,65535,1,62,-0.96,-0.92,0.10,0.20,0.04,0.15,28.5,512,255,-128,-128,37.1,417,450,497
25/06/2015 11:40:25.428,98,11.3,-3276.8,-8,0.03,0.08,4.166,94,79.000,65535.000,255,0.005860,0.000080,100,65535,100,65535,1,63,-0.95,-0.91,0.08,0.16,0.06,0.16,28.5,512,255,-128,-128,37.1,417,450,498
25/06/2015 11:40:26.428,97,11.3,-3276.8,-10,0.03,0.06,4.166,94,84.000,65535.000,255,0.005720,0.000080,100,65535,100,65535,1,64,-0.95,-0.91,0.09,0.20,0.06,0.16,28.5,512,255,-128,-128,37.1,416,450,497
25/06/2015 11:40:27.428,96,11.3,-3276.8,-9,0.03,0.09,4.166,94,82.000,65535.000,255,0.005720,0.000100,100,65535,100,65535,1,65,-1.01,-0.90,0.07,0.19,0.07,0.18,28.5,512,255,-128,-128,37.1,417,450,498
25/06/2015 11:40:28.428,94,11.7,-3276.8,-9,0.02,0.07,4.166,94,78.000,65535.000,255,0.005600,0.000100,100,65535,100,65535,1,66,-0.97,-0.92,0.04,0.15,0.06,0.15,28.5,512,255,-128,-128,37.1,418,449,497
25/06/2015 11:40:29.428,94,11.7,-3276.8,-8,0.03,0.06,4.166,94,73.000,65535.000,255,0.005600,0.000100,100,65535,100,65535,1,67,-0.97,-0.90,0.04,0.15,0.06,0.15,28.5,512,255,-128,-128,37.1,418,450,497
25/06/2015 11:40:30.428,94,12.3,-3276.8,-7,0.03,0.08,4.166,94,82.000,65535.000,255,0.005460,0.000100,100,65535,100,65535,1,68,-0.96,-0.91,0.02,0.09,0.04,0.14,28.5,512,255,-128,-128,37.1,417,450,497
25/06/2015 11:40:31.428,93,12.3,-3276.8,-6,0.04,0.06,4.166,94,74.000,65535.000,255,0.005460,0.000080,100,65535,100,65535,1,69,-0.97,-0.91,0.01,0.12,0.06,0.14,28.5,512,255,-128,-128,37.1,418,449,497
25/06/2015 11:40:32.428,92,12.6,-3276.8,-7,0.09,0.14,4.166,94,71.000,65535.000,255,0.005740,0.000100,100,65535,100,65535,1,70,-1.02,-0.90,0.00,0.21,0.01,0.19,28.5,512,255,-128,-128,37.1,417,449,498
25/06/2015 11:40:33.428,91,12.6,-3276.8,-5,0.16,0.28,4.166,94,73.000,65535.000,255,0.005740,0.000100,100,65535,100,65535,1,71,-1.22,-0.69,-0.07,0.20,-0.07,0.16,28.5,512,255,-128,-128,37.1,418,449,498
25/06/2015 11:40:34.428,92,13.1,-3276.8,-4,0.17,0.34,4.166,94,73.000,65535.000,255,0.005820,0.000100,100,65535,100,65535,1,72,-1.24,-0.61,-0.09,0.24,-0.18,0.18,28.5,512,255,-128,-128,37.1,408,436,472
25/06/2015 11:40:35.428,92,13.1,-3276.8,-6,0.15,0.31,4.166,94,69.000,65535.000,255,0.005820,0.000120,100,65535,100,65535,1,73,-1.27,-0.73,-0.09,0.22,-0.13,0.19,28.5,512,255,-128,-128,37.1,419,451,499
25/06/2015 11:40:36.428,92,14.2,-3276.8,-5,0.15,0.31,4.166,94,62.000,65535.000,255,0.006060,0.000120,100,65535,100,65535,1,74,-1.20,-0.72,-0.08,0.24,-0.16,0.18,28.5,512,255,-128,-128,37.1,416,449,498
25/06/2015 11:40:37.428,90,14.2,-3276.8,-5,0.17,0.32,4.166,94,63.000,65535.000,255,0.006060,0.000100,100,65535,100,65535,1,75,-1.28,-0.68,0.01,0.22,-0.16,0.19,28.5,512,255,-128,-128,37.1,418,449,497
25/06/2015 11:40:38.428,90,15.2,-3276.8,-6,0.13,0.33,4.166,94,62.000,65535.000,255,0.005640,0.000100,100,65535,100,65535,1,76,-1.19,-0.62,-0.03,0.21,-0.13,0.19,28.5,512,255,-128,-128,37.1,419,436,478
25/06/2015 11:40:39.428,90,15.2,-3276.8,-5,0.13,0.27,4.166,94,64.000,65535.000,255,0.005640,0.000100,100,65535,100,65535,1,77,-1.15,-0.74,-0.04,0.26,-0.16,0.12,28.5,512,255,-128,-128,37.1,420,450,499
25/06/2015 11:40:40.428,89,16.1,-3276.8,-4,0.12,0.26,4.165,94,63.000,65535.000,255,0.006060,0.000080,100,65535,100,65535,1,78,-1.25,-0.78,-0.03,0.13,-0.18,0.16,28.5,512,255,-128,-128,37.1,418,449,498
25/06/2015 11:40:41.428,90,16.1,-3276.8,-4,0.13,0.32,4.165,94,60.000,65535.000,255,0.006060,0.000080,100,65535,100,65535,1,79,-1.28,-0.74,-0.01,0.20,0.01,0.19,28.5,512,255,-128,-128,37.1,418,449,498
25/06/2015 11:40:42.428,89,16.8,-3276.8,6,0.14,0.31,4.165,94,60.000,65535.000,255,0.005900,0.000080,100,65535,100,65535,1,80,-1.26,-0.84,0.02,0.22,-0.13,0.18,28.5,512,255,-128,-128,37.1,409,442,492
25/06/2015 11:40:43.428,89,16.8,-3276.8,-4,0.13,0.24,4.165,94,58.000,65535.000,255,0.005900,0.000080,100,65535,100,65535,1,81,-1.15,-0.74,-0.02,0.27,-0.14,0.18,28.5,512,255,-128,-128,37.1,420,452,501
25/06/2015 11:40:44.428,87,17.9,-3276.8,-6,0.09,0.19,4.165,94,57.000,65535.000,255,0.005880,0.000080,100,65535,100,65535,1,82,-1.12,-0.85,-0.01,0.20,-0.07,0.19,28.5,512,255,-128,-128,37.1,417,449,497
25/06/2015 11:40:45.428,85,17.9,-3276.8,-6,0.11,0.15,4.165,94,55.000,65535.000,255,0.005880,0.000080,100,65535,100,65535,1,83,-1.04,-0.86,0.02,0.22,-0.08,0.19,28.5,512,255,-128,-128,37.1,417,449,495
25/06/2015 11:40:46.428,84,18.5,-3276.8,-6,0.10,0.18,4.165,94,54.000,65535.000,255,0.006020,0.000080,100,65535,100,65535,1,84,-1.08,-0.87,0.02,0.20,-0.04,0.19,28.5,512,255,-128,-128,37.1,418,441,503
25/06/2015 11:40:47.428,83,18.5,-3276.8,-7,0.09,0.15,4.165,94,51.000,65535.000,255,0.006020,0.000080,100,65535,100,65535,1,85,-1.01,-0.89,0.06,0.26,-0.10,0.06,28.5,512,255,-128,-128,37.1,427,452,499
25/06/2015 11:40:48.428,83,19.0,-3276.8,-6,0.09,0.16,4.165,94,49.000,65535.000,255,0.006000,0.000080,100,65535,100,65535,1,86,-1.00,-0.90,0.01,0.10,0.03,0.19,28.5,512,255,-128,-128,37.1,417,448,496
25/06/2015 11:40:49.428,83,19.0,-3276.8,-7,0.09,0.21,4.165,94,48.000,65535.000,255,0.006000,0.000080,100,65535,100,65535,1,87,-0.97,-0.90,0.04,0.38,-0.12,0.19,28.5,512,255,-128,-128,37.1,417,447,497
25/06/2015 11:40:50.428,83,19.5,-3276.8,-6,0.07,0.12,4.165,94,49.000,65535.000,255,0.005320,0.000080,100,65535,100,65535,1,88,-1.01,-0.91,0.01,0.22,-0.07,0.12,28.5,512,255,-128,-128,37.1,418,448,496
25/06/2015 11:40:51.428,83,19.5,-3276.8,-6,0.10,0.13,4.165,94,47.000,65535.000,255,0.005320,0.000080,100,65535,100,65535,1,89,-1.01,-0.90,-0.01,0.06,0.08,0.18,28.5,512,255,-128,-128,37.1,418,447,497
25/06/2015 11:40:52.428,82,20.3,-3276.8,-6,0.12,0.19,4.165,94,49.000,65535.000,255,0.005640,0.000080,100,65535,100,65535,1,90,-1.10,-0.80,0.01,0.21,-0.10,0.15,28.5,512,255,-128,-128,37.1,418,447,498
25/06/2015 11:40:53.428,81,20.3,-3276.8,-5,0.12,0.21,4.165,94,45.000,65535.000,255,0.005640,0.000100,100,65535,100,65535,1,91,-1.14,-0.74,-0.03,0.16,-0.08,0.15,28.5,512,255,-128,-128,37.1,417,448,497
25/06/2015 11:40:54.428,79,21.2,-3276.8,-5,0.14,0.24,4.165,94,45.000,65535.000,255,0.005680,0.000100,100,65535,100,65535,1,92,-1.14,-0.73,-0.08,0.21,-0.15,0.12,28.5,512,255,-128,-128,37.1,418,448,497
25/06/2015 11:40:55.428,79,21.2,-3276.8,-6,0.13,0.25,4.165,94,44.000,65535.000,255,0.005680,0.000100,100,65535,100,65535,1,93,-1.22,-0.73,0.00,0.26,-0.12,0.14,28.5,512,255,-128,-128,37.1,406,427,475
25/06/2015 11:40:56.428,79,21.8,-3276.8,-4,0.14,0.19,4.165,94,50.000,65535.000,255,0.005600,0.000080,100,65535,100,65535,1,94,-1.12,-0.79,-0.06,0.25,-0.12,0.19,28.5,512,255,-128,-128,37.1,418,447,496
25/06/2015 11:40:57.428,79,21.8,-3276.8,-6,0.13,0.20,4.165,94,56.000,65535.000,255,0.005600,0.000100,100,65535,100,65535,1,95,-1.12,-0.77,0.02,0.24,-0.08,0.19,28.5,512,255,-128,-128,37.1,418,447,497
25/06/2015 11:40:58.428,78,22.6,-3276.8,-6,0.10,0.15,4.165,94,52.000,65535.000,255,0.005980,0.000080,100,65535,100,65535,1,96,-1.01,-0.86,-0.01,0.08,-0.04,0.19,28.5,512,255,-128,-128,37.1,417,446,497
25/06/2015 11:40:59.428,77,22.6,-3276.8,-6,0.12,0.21,4.165,94,51.000,65535.000,255,0.005980,0.000080,100,65535,100,65535,1,97,-1.06,-0.87,0.02,0.26,-0.15,0.15,28.5,512,255,-128,-128,37.1,415,437,487
25/06/2015 11:41:00.428,78,23.3,-3276.8,-5,0.08,0.20,4.165,94,50.000,65535.000,255,0.006000,0.000100,100,65535,100,65535,1,98,-1.03,-0.86,-0.18,0.21,-0.08,0.14,28.5,512,255,-128,-128,37.1,419,449,500
25/06/2015 11:41:01.428,79,23.3,-3276.8,-3,0.04,0.09,4.165,94,52.000,65535.000,255,0.006000,0.000080,100,65535,100,65535,1,99,-1.02,-0.87,0.00,0.10,0.01,0.13,28.5,512,255,-128,-128,37.1,417,447,497
25/06/2015 11:41:02.428,80,23.7,-3276.8,-5,0.04,0.08,4.165,94,49.000,65535.000,255,0.005820,0.000080,100,65535,100,65535,1,100,-0.96,-0.91,0.03,0.14,0.04,0.14,28.5,512,255,-128,-128,37.1,416,448,497
25/06/2015 11:41:03.428,80,23.7,-3276.8,-5,0.02,0.06,4.165,94,50.000,65535.000,255,0.005820,0.000080,100,65535,100,65535,1,101,-0.97,-0.91,0.02,0.09,0.04,0.14,28.5,512,255,-128,-128,37.1,422,451,504
25/06/2015 11:41:04.428,77,24.0,-3276.8,-5,0.01,0.04,4.165,94,52.000,65535.000,255,0.005540,0.000080,100,65535,100,65535,1,102,-0.96,-0.91,0.02,0.08,0.02,0.10,28.5,512,255,-128,-128,37.1,428,455,507
25/06/2015 11:41:05.428,75,24.0,-3276.8,-5,0.01,0.04,4.165,94,47.000,65535.000,255,0.005540,0.000080,100,65535,100,65535,1,103,-0.97,-0.92,0.02,0.10,0.03,0.12,28.5,512,255,-128,-128,37.1,417,446,496
25/06/2015 11:41:06.428,75,24.6,-3276.8,-5,0.01,0.04,4.165,94,48.000,65535.000,255,0.005580,0.000080,100,65535,100,65535,1,104,-0.95,-0.91,0.02,0.10,0.03,0.14,28.5,512,255,-128,-128,37.1,417,446,496
25/06/2015 11:41:07.428,75,24.6,-3276.8,-5,0.02,0.06,4.165,94,47.000,65535.000,255,0.005580,0.000080,100,65535,100,65535,1,105,-0.95,-0.91,0.02,0.13,0.03,0.13,28.5,512,255,-128,-128,37.1,417,447,497
25/06/2015 11:41:08.428,77,24.9,-3276.8,-6,0.02,0.04,4.165,94,48.000,65535.000,255,0.005520,0.000080,100,65535,100,65535,1,106,-0.96,-0.91,0.02,0.10,0.04,0.14,28.5,512,255,-128,-128,37.1,418,447,498
25/06/2015 11:41:09.428,78,24.9,-3276.8,-5,0.01,0.03,4.165,94,48.000,65535.000,255,0.005520,0.000080,100,65535,100,65535,1,107,-0.96,-0.92,0.02,0.10,0.02,0.10,28.5,512,255,-128,-128,37.1,417,446,497
25/06/2015 11:41:10.428,79,25.1,-3276.8,-5,0.01,0.04,4.165,94,48.000,65535.000,255,0.005520,0.000080,100,65535,100,65535,1,108,-0.95,-0.92,0.02,0.12,0.03,0.12,28.5,512,255,-128,-128,37.1,417,446,497
25/06/2015 11:41:11.428,79,25.1,-3276.8,-6,0.03,0.07,4.165,94,50.000,65535.000,255,0.005520,0.000080,100,65535,100,65535,1,109,-0.98,-0.91,0.02,0.13,0.04,0.15,28.5,512,255,-128,-128,37.1,417,446,497
25/06/2015 11:41:12.428,80,25.3,-3276.8,-6,0.08,0.26,4.165,94,45.000,65535.000,255,0.005580,0.000080,100,65535,100,65535,1,110,-1.08,-0.83,0.00,0.19,-0.15,0.19,28.5,512,255,-128,-128,37.1,417,446,497
25/06/2015 11:41:13.428,80,25.3,-3276.8,-5,0.17,0.26,4.165,94,51.000,65535.000,255,0.005580,0.000100,100,65535,100,65535,1,111,-1.16,-0.73,-0.07,0.26,-0.09,0.14,28.5,512,255,-128,-128,37.1,418,447,497
25/06/2015 11:41:14.428,82,24.8,-3276.8,-6,0.14,0.31,4.165,94,49.000,65535.000,255,0.005540,0.000100,100,65535,100,65535,1,112,-1.27,-0.73,0.02,0.26,-0.14,0.19,28.5,512,255,-128,-128,37.1,417,445,497
25/06/2015 11:41:15.428,83,24.8,-3276.8,-5,0.15,0.30,4.165,94,48.000,65535.000,255,0.005540,0.000100,100,65535,100,65535,1,113,-1.15,-0.71,-0.09,0.16,-0.16,0.19,28.5,512,255,-128,-128,37.1,416,444,496
25/06/2015 11:41:16.428,83,24.5,-3276.8,-6,0.11,0.19,4.165,94,48.000,65535.000,255,0.005520,0.000120,100,65535,100,65535,1,114,-1.09,-0.87,-0.02,0.22,-0.13,0.04,28.5,512,255,-128,-128,37.1,400,436,491
25/06/2015 11:41:17.428,83,24.5,-3276.8,-4,0.11,0.20,4.164,94,49.000,65535.000,255,0.005520,0.000100,100,65535,100,65535,1,115,-1.14,-0.74,-0.03,0.18,-0.07,0.19,28.5,512,255,-128,-128,37.1,418,447,497
25/06/2015 11:41:18.428,82,24.1,-3276.8,-6,0.12,0.18,4.164,94,51.000,65535.000,255,0.005700,0.000100,100,65535,100,65535,1,116,-1.10,-0.81,-0.04,0.24,-0.10,0.06,28.5,512,255,-128,-128,37.1,418,445,496
25/06/2015 11:41:19.428,81,24.1,-3276.8,-5,0.14,0.21,4.164,94,49.000,65535.000,255,0.005700,0.000100,100,65535,100,65535,1,117,-1.13,-0.79,0.00,0.20,-0.13,0.19,28.5,512,255,-128,-128,37.1,417,445,497
25/06/2015 11:41:20.428,79,23.8,-3276.8,-5,0.15,0.30,4.164,94,46.000,65535.000,255,0.005780,0.000100,100,65535,100,65535,1,118,-1.28,-0.69,-0.12,0.25,-0.13,0.19,28.5,512,255,-128,-128,37.4,415,448,490